| time (UTC) | temp F | wind direction | speed MPH | gust MPH | rain 1hr in | rain 24hr in | rain mn in | humidity % | barometer mb |
| 20260507155033 | 61 | 359 | 4.0 | 7.0 | 0.00 | 0.12 | 0.04 | 41 | 1007.6 |
| 20260507154023 | 59 | 349 | 4.0 | 7.0 | 0.00 | 0.12 | 0.04 | 47 | 1007.6 |
| 20260507153044 | 60 | 336 | 3.0 | 5.0 | 0.00 | 0.12 | 0.04 | 48 | 1007.5 |
| 20260507152024 | 59 | 323 | 4.0 | 9.0 | 0.00 | 0.12 | 0.04 | 49 | 1007.7 |
| 20260507151025 | 60 | 329 | 4.0 | 7.0 | 0.00 | 0.12 | 0.04 | 51 | 1007.8 |
| 20260507150029 | 59 | 341 | 4.0 | 8.0 | 0.00 | 0.12 | 0.04 | 54 | 1007.9 |
| 20260507145023 | 58 | 302 | 2.0 | 6.0 | 0.00 | 0.12 | 0.04 | 59 | 1008.0 |
| 20260507144020 | 57 | 318 | 3.0 | 6.0 | 0.00 | 0.12 | 0.04 | 57 | 1008.2 |
| 20260507143023 | 57 | 314 | 4.0 | 10.0 | 0.00 | 0.12 | 0.04 | 59 | 1008.2 |
| 20260507142019 | 58 | 330 | 3.0 | 8.0 | 0.00 | 0.12 | 0.04 | 58 | 1008.2 |
| 20260507141020 | 57 | 330 | 3.0 | 6.0 | 0.00 | 0.12 | 0.04 | 60 | 1008.2 |
| 20260507140026 | 57 | 325 | 3.0 | 5.0 | 0.00 | 0.12 | 0.04 | 61 | 1008.1 |
| 20260507135019 | 56 | 195 | 4.0 | 7.0 | 0.00 | 0.12 | 0.04 | 62 | 1008.0 |
| 20260507134018 | 55 | 323 | 3.0 | 5.0 | 0.00 | 0.12 | 0.04 | 64 | 1008.0 |
| 20260507133026 | 55 | 328 | 4.0 | 7.0 | 0.00 | 0.12 | 0.04 | 65 | 1008.1 |
| 20260507132023 | 55 | 312 | 3.0 | 6.0 | 0.00 | 0.12 | 0.04 | 64 | 1008.2 |
| 20260507131019 | 55 | 335 | 3.0 | 6.0 | 0.00 | 0.12 | 0.04 | 66 | 1008.4 |
| 20260507130040 | 54 | 327 | 4.0 | 7.0 | 0.00 | 0.12 | 0.04 | 67 | 1008.3 |
| 20260507125026 | 53 | 351 | 3.0 | 4.0 | 0.00 | 0.12 | 0.04 | 70 | 1008.4 |
| 20260507124048 | 53 | 326 | 2.0 | 4.0 | 0.00 | 0.12 | 0.04 | 72 | 1008.5 |
| 20260507123020 | 52 | 347 | 3.0 | 4.0 | 0.00 | 0.12 | 0.04 | 77 | 1008.5 |
| 20260507122024 | 51 | 350 | 3.0 | 4.0 | 0.00 | 0.12 | 0.04 | 78 | 1008.5 |
| 20260507121025 | 51 | 341 | 3.0 | 6.0 | 0.00 | 0.12 | 0.04 | 80 | 1008.6 |
| 20260507120024 | 50 | 325 | 2.0 | 4.0 | 0.00 | 0.12 | 0.04 | 83 | 1008.4 |
| 20260507114025 | 50 | 0.0 | 0.0 | 0.00 | 0.12 | 0.04 | 89 | 1008.5 | |
| 20260507113019 | 49 | 0.0 | 0.0 | 0.00 | 0.12 | 0.04 | 90 | 1008.4 | |
| 20260507112024 | 49 | 0.0 | 0.0 | 0.00 | 0.12 | 0.04 | 91 | 1008.5 | |
| 20260507111024 | 49 | 0.0 | 0.0 | 0.00 | 0.12 | 0.04 | 91 | 1008.3 | |
| 20260507110024 | 48 | 0.0 | 0.0 | 0.00 | 0.12 | 0.04 | 91 | 1008.0 | |
| 20260507105024 | 48 | 0.0 | 0.0 | 0.00 | 0.12 | 0.04 | 91 | 1008.3 | |
| 20260507104024 | 48 | 0.0 | 0.0 | 0.00 | 0.12 | 0.04 | 90 | 1008.3 | |
| 20260507103023 | 48 | 0.0 | 0.0 | 0.01 | 0.12 | 0.04 | 90 | 1007.9 | |
| 20260507102026 | 48 | 0.0 | 0.0 | 0.01 | 0.12 | 0.04 | 90 | 1007.7 | |
| 20260507101023 | 48 | 0.0 | 0.0 | 0.01 | 0.12 | 0.04 | 90 | 1007.6 | |
| 20260507100019 | 48 | 328 | 1.0 | 3.0 | 0.02 | 0.12 | 0.04 | 89 | 1007.6 |
| 20260507095019 | 48 | 2 | 0.0 | 1.0 | 0.02 | 0.12 | 0.04 | 89 | 1007.5 |
| 20260507094040 | 48 | 304 | 1.0 | 3.0 | 0.02 | 0.12 | 0.04 | 89 | 1007.5 |
| 20260507093020 | 48 | 345 | 0.0 | 1.0 | 0.01 | 0.11 | 0.03 | 88 | 1007.7 |
| 20260507092025 | 48 | 320 | 3.0 | 4.0 | 0.01 | 0.11 | 0.03 | 87 | 1007.9 |
| 20260507091023 | 49 | 320 | 1.0 | 3.0 | 0.01 | 0.11 | 0.03 | 87 | 1007.8 |
| 20260507090020 | 49 | 329 | 1.0 | 3.0 | 0.00 | 0.10 | 0.02 | 86 | 1008.1 |
| 20260507085045 | 49 | 305 | 1.0 | 2.0 | 0.00 | 0.10 | 0.02 | 85 | 1008.1 |
| 20260507084024 | 49 | 323 | 2.0 | 3.0 | 0.00 | 0.10 | 0.02 | 85 | 1007.9 |
| 20260507083023 | 49 | 318 | 1.0 | 3.0 | 0.02 | 0.10 | 0.02 | 86 | 1007.8 |
| 20260507082023 | 49 | 0.0 | 1.0 | 0.02 | 0.10 | 0.02 | 86 | 1007.7 | |
| 20260507081025 | 49 | 319 | 1.0 | 3.0 | 0.02 | 0.10 | 0.02 | 86 | 1007.4 |
| 20260507080026 | 50 | 309 | 1.0 | 3.0 | 0.02 | 0.10 | 0.02 | 86 | 1007.6 |
| 20260507075020 | 50 | 328 | 2.0 | 5.0 | 0.02 | 0.10 | 0.02 | 85 | 1007.9 |
| 20260507074024 | 51 | 311 | 1.0 | 4.0 | 0.02 | 0.10 | 0.02 | 85 | 1007.6 |
| 20260507073026 | 52 | 322 | 2.0 | 4.0 | 0.00 | 0.08 | 0.00 | 81 | 1007.7 |
| 20260507072024 | 52 | 326 | 2.0 | 5.0 | 0.00 | 0.08 | 0.00 | 81 | 1007.3 |
| 20260507071020 | 52 | 318 | 2.0 | 3.0 | 0.00 | 0.08 | 0.00 | 81 | 1007.0 |
| 20260507070025 | 53 | 312 | 1.0 | 3.0 | 0.00 | 0.08 | 0.00 | 82 | 1006.9 |
| 20260507065023 | 53 | 334 | 1.0 | 3.0 | 0.00 | 0.08 | 0.00 | 83 | 1006.8 |
| 20260507064019 | 53 | 314 | 1.0 | 3.0 | 0.00 | 0.08 | 0.00 | 83 | 1006.8 |
| 20260507063024 | 54 | 338 | 0.0 | 2.0 | 0.00 | 0.08 | 0.00 | 83 | 1007.0 |
| 20260507062027 | 54 | 328 | 2.0 | 5.0 | 0.00 | 0.08 | 0.00 | 83 | 1007.0 |
| 20260507061024 | 54 | 326 | 2.0 | 3.0 | 0.00 | 0.08 | 0.00 | 83 | 1006.9 |
| 20260507060020 | 54 | 342 | 2.0 | 3.0 | 0.00 | 0.08 | 0.00 | 83 | 1006.8 |
| 20260507055043 | 55 | 330 | 2.0 | 3.0 | 0.00 | 0.08 | 0.00 | 83 | 1007.0 |
| 20260507054026 | 55 | 320 | 3.0 | 3.0 | 0.00 | 0.08 | 0.00 | 83 | 1007.1 |
| 20260507053023 | 55 | 325 | 4.0 | 8.0 | 0.00 | 0.08 | 0.00 | 83 | 1007.3 |
| 20260507052019 | 56 | 328 | 4.0 | 6.0 | 0.00 | 0.08 | 0.00 | 84 | 1007.3 |
| 20260507051027 | 56 | 321 | 3.0 | 5.0 | 0.00 | 0.08 | 0.00 | 86 | 1007.3 |
| 20260507050023 | 56 | 319 | 2.0 | 3.0 | 0.00 | 0.08 | 0.00 | 86 | 1007.1 |
| 20260507045020 | 57 | 326 | 1.0 | 3.0 | 0.00 | 0.08 | 0.00 | 87 | 1007.2 |
| 20260507044030 | 57 | 329 | 3.0 | 4.0 | 0.00 | 0.08 | 0.00 | 87 | 1007.2 |
| 20260507043023 | 57 | 328 | 0.0 | 2.0 | 0.00 | 0.08 | 0.00 | 87 | 1007.0 |
| 20260507042024 | 57 | 334 | 2.0 | 5.0 | 0.00 | 0.08 | 0.00 | 87 | 1007.1 |
| 20260507041024 | 58 | 321 | 2.0 | 6.0 | 0.00 | 0.08 | 0.00 | 86 | 1007.0 |
| 20260507040105 | 58 | 324 | 3.0 | 5.0 | 0.00 | 0.08 | 0.00 | 86 | 1007.0 |
| 20260507035028 | 59 | 327 | 4.0 | 8.0 | 0.00 | 0.08 | 0.08 | 88 | 1007.1 |
| 20260507034024 | 59 | 310 | 1.0 | 4.0 | 0.00 | 0.08 | 0.08 | 90 | 1006.9 |
| 20260507033020 | 59 | 322 | 1.0 | 3.0 | 0.00 | 0.08 | 0.08 | 91 | 1006.6 |
| 20260507032026 | 59 | 335 | 1.0 | 5.0 | 0.00 | 0.08 | 0.08 | 92 | 1006.5 |
| 20260507031019 | 59 | 306 | 1.0 | 3.0 | 0.00 | 0.08 | 0.08 | 92 | 1006.4 |
| 20260507030021 | 59 | 0.0 | 0.0 | 0.00 | 0.08 | 0.08 | 92 | 1006.3 | |
| 20260507025025 | 59 | 0.0 | 0.0 | 0.00 | 0.08 | 0.08 | 92 | 1006.0 | |
| 20260507024044 | 59 | 0.0 | 0.0 | 0.00 | 0.08 | 0.08 | 92 | 1006.0 | |
| 20260507023039 | 59 | 0.0 | 0.0 | 0.00 | 0.08 | 0.08 | 91 | 1006.1 | |
| 20260507022026 | 59 | 0.0 | 0.0 | 0.00 | 0.08 | 0.08 | 91 | 1006.2 | |
| 20260507021023 | 59 | 0.0 | 1.0 | 0.00 | 0.08 | 0.08 | 91 | 1006.1 | |
| 20260507020019 | 59 | 0.0 | 1.0 | 0.00 | 0.08 | 0.08 | 91 | 1006.1 | |
| 20260507015101 | 59 | 268 | 0.0 | 2.0 | 0.00 | 0.08 | 0.08 | 91 | 1006.1 |
| 20260507014026 | 59 | 0.0 | 0.0 | 0.00 | 0.08 | 0.08 | 91 | 1006.0 | |
| 20260507013023 | 59 | 139 | 2.0 | 4.0 | 0.00 | 0.08 | 0.08 | 92 | 1006.1 |
| 20260507012020 | 59 | 161 | 1.0 | 3.0 | 0.00 | 0.08 | 0.08 | 92 | 1006.1 |
| 20260507011023 | 59 | 105 | 1.0 | 3.0 | 0.00 | 0.08 | 0.08 | 92 | 1006.2 |
| 20260507010025 | 59 | 167 | 2.0 | 4.0 | 0.00 | 0.08 | 0.08 | 92 | 1006.2 |
| 20260507005044 | 59 | 161 | 1.0 | 4.0 | 0.00 | 0.08 | 0.08 | 92 | 1006.3 |
| 20260507004020 | 59 | 127 | 0.0 | 3.0 | 0.00 | 0.08 | 0.08 | 92 | 1006.2 |
| 20260507003025 | 59 | 143 | 0.0 | 3.0 | 0.00 | 0.08 | 0.08 | 92 | 1006.2 |
| 20260507002019 | 59 | 114 | 0.0 | 3.0 | 0.00 | 0.08 | 0.08 | 92 | 1006.1 |
| 20260507001023 | 59 | 140 | 0.0 | 3.0 | 0.00 | 0.08 | 0.08 | 92 | 1006.1 |
| 20260507000024 | 59 | 98 | 0.0 | 1.0 | 0.02 | 0.08 | 0.08 | 92 | 1005.9 |
| 20260506235023 | 59 | 148 | 1.0 | 4.0 | 0.02 | 0.08 | 0.08 | 92 | 1005.9 |
| 20260506234024 | 59 | 171 | 3.0 | 5.0 | 0.02 | 0.08 | 0.08 | 92 | 1005.8 |
| 20260506233024 | 59 | 167 | 1.0 | 3.0 | 0.02 | 0.08 | 0.08 | 92 | 1005.9 |
| 20260506232023 | 60 | 89 | 0.0 | 3.0 | 0.02 | 0.08 | 0.08 | 91 | 1005.9 |
| 20260506231026 | 60 | 160 | 0.0 | 2.0 | 0.02 | 0.08 | 0.08 | 91 | 1005.8 |
| 20260506230023 | 60 | 170 | 0.0 | 3.0 | 0.00 | 0.06 | 0.06 | 90 | 1005.9 |
| 20260506225020 | 60 | 182 | 2.0 | 4.0 | 0.00 | 0.06 | 0.06 | 90 | 1006.1 |
| 20260506224026 | 60 | 15 | 0.0 | 3.0 | 0.00 | 0.06 | 0.06 | 90 | 1006.1 |
| 20260506223040 | 60 | 0.0 | 0.0 | 0.00 | 0.06 | 0.06 | 90 | 1006.1 | |
| 20260506222027 | 60 | 160 | 0.0 | 2.0 | 0.01 | 0.06 | 0.06 | 89 | 1006.1 |
| 20260506221044 | 60 | 168 | 1.0 | 4.0 | 0.01 | 0.06 | 0.06 | 89 | 1006.3 |
| 20260506220024 | 61 | 198 | 1.0 | 4.0 | 0.01 | 0.06 | 0.06 | 89 | 1006.3 |
| 20260506215020 | 60 | 178 | 1.0 | 3.0 | 0.01 | 0.06 | 0.06 | 89 | 1006.3 |
| 20260506214025 | 60 | 201 | 1.0 | 3.0 | 0.01 | 0.06 | 0.06 | 89 | 1006.6 |
| 20260506213043 | 60 | 175 | 2.0 | 4.0 | 0.01 | 0.06 | 0.06 | 88 | 1006.7 |
| 20260506212140 | 60 | 164 | 1.0 | 3.0 | 0.00 | 0.05 | 0.05 | 88 | 1006.7 |
| 20260506211023 | 60 | 174 | 1.0 | 4.0 | 0.01 | 0.05 | 0.05 | 88 | 1006.8 |
| 20260506210026 | 60 | 141 | 1.0 | 3.0 | 0.01 | 0.05 | 0.05 | 88 | 1006.8 |
| 20260506205027 | 60 | 137 | 2.0 | 5.0 | 0.01 | 0.05 | 0.05 | 87 | 1006.9 |
| 20260506204020 | 60 | 158 | 3.0 | 7.0 | 0.01 | 0.05 | 0.05 | 87 | 1007.0 |
| 20260506203023 | 61 | 175 | 4.0 | 7.0 | 0.02 | 0.05 | 0.05 | 87 | 1007.0 |
| 20260506202045 | 61 | 179 | 1.0 | 4.0 | 0.03 | 0.05 | 0.05 | 87 | 1007.0 |
| 20260506201044 | 61 | 171 | 2.0 | 4.0 | 0.02 | 0.04 | 0.04 | 87 | 1007.1 |
| 20260506200019 | 61 | 184 | 2.0 | 7.0 | 0.03 | 0.04 | 0.04 | 86 | 1007.0 |
| 20260506195028 | 62 | 173 | 2.0 | 4.0 | 0.04 | 0.04 | 0.04 | 85 | 1007.0 |
| 20260506194023 | 62 | 156 | 2.0 | 5.0 | 0.04 | 0.04 | 0.04 | 85 | 1007.0 |
| 20260506193020 | 63 | 166 | 1.0 | 3.0 | 0.03 | 0.03 | 0.03 | 83 | 1007.0 |
| 20260506192044 | 64 | 179 | 1.0 | 4.0 | 0.02 | 0.02 | 0.02 | 81 | 1007.0 |
| 20260506191027 | 64 | 156 | 1.0 | 5.0 | 0.02 | 0.02 | 0.02 | 79 | 1007.0 |
| 20260506190024 | 65 | 168 | 1.0 | 4.0 | 0.01 | 0.01 | 0.01 | 77 | 1007.1 |
| 20260506185020 | 66 | 82 | 1.0 | 2.0 | 0.00 | 0.00 | 0.00 | 75 | 1007.1 |
| 20260506184024 | 68 | 134 | 2.0 | 4.0 | 0.00 | 0.00 | 0.00 | 70 | 1007.3 |
| 20260506183025 | 69 | 34 | 2.0 | 5.0 | 0.00 | 0.00 | 0.00 | 68 | 1007.3 |
| 20260506182043 | 70 | 149 | 3.0 | 7.0 | 0.00 | 0.00 | 0.00 | 63 | 1007.3 |
| 20260506181019 | 72 | 111 | 2.0 | 4.0 | 0.00 | 0.00 | 0.00 | 57 | 1007.2 |
| 20260506180046 | 73 | 161 | 1.0 | 6.0 | 0.00 | 0.00 | 0.00 | 53 | 1007.1 |
| 20260506175104 | 73 | 48 | 1.0 | 2.0 | 0.00 | 0.00 | 0.00 | 51 | 1007.2 |
| 20260506174020 | 74 | 123 | 3.0 | 7.0 | 0.00 | 0.00 | 0.00 | 50 | 1007.3 |
| 20260506173024 | 75 | 109 | 3.0 | 7.0 | 0.00 | 0.00 | 0.00 | 49 | 1007.3 |
| 20260506172024 | 75 | 146 | 2.0 | 5.0 | 0.00 | 0.00 | 0.00 | 50 | 1007.3 |
| 20260506171024 | 75 | 118 | 3.0 | 9.0 | 0.00 | 0.00 | 0.00 | 49 | 1007.4 |
| 20260506170026 | 75 | 41 | 2.0 | 5.0 | 0.00 | 0.00 | 0.00 | 48 | 1007.3 |
| 20260506165024 | 74 | 28 | 2.0 | 6.0 | 0.00 | 0.00 | 0.00 | 51 | 1007.4 |
| 20260506164019 | 73 | 123 | 3.0 | 6.0 | 0.00 | 0.00 | 0.00 | 53 | 1007.7 |
| 20260506163023 | 73 | 171 | 2.0 | 4.0 | 0.00 | 0.00 | 0.00 | 53 | 1007.8 |
| 20260506162020 | 73 | 123 | 2.0 | 7.0 | 0.00 | 0.00 | 0.00 | 54 | 1008.0 |
| 20260506161043 | 73 | 141 | 2.0 | 7.0 | 0.00 | 0.00 | 0.00 | 54 | 1008.2 |
| 20260506160020 | 72 | 89 | 1.0 | 6.0 | 0.00 | 0.00 | 0.00 | 55 | 1008.4 |